This demonstration page uses our WeatherBlox Daily Observations layout. Learn more.

Hourly Observations for June 8, 2016

Temp ( °F °C ) Dew Point ( °F °C ) Humidity (%) Winds ( mph kmh ) Pressure ( in mb ) Visibility ( mi km ) Precip ( " mm )
12:35 am 00:35 Clear 67 19.4 52 11 58 58 SSE 8 13 29.83 1010 10 16.0934 0 0
12:55 am 00:55 Clear 67 19.3 52 11 59 59 SSE 8 13 29.85 1011 10 16.0934 0 0
1:15 am 01:15 Clear 67 19.2 52 11 59 59 SSE 9 15 29.83 1010 10 16.0934 0 0
1:35 am 01:35 Clear 66 19.1 52 10.9 59 59 SSE 9 15 29.83 1010 10 16.0934 0 0
1:55 am 01:55 Clear 66 19.1 51 10.7 58 58 SSE 9 15 29.83 1010 10 16.0934 0 0
2:15 am 02:15 Clear 65 18.6 52 11 61 61 SSE 8 13 29.83 1010 10 16.0934 0 0
2:35 am 02:35 Clear 65 18.2 52 11.2 64 64 SSE 9 15 29.85 1011 10 16.0934 0 0
2:55 am 02:55 Clear 65 18.2 52 11.3 64 64 SSE 8 13 29.85 1011 10 16.0934 0 0
3:15 am 03:15 Clear 65 18.5 53 11.6 64 64 SSE 10 17 29.85 1011 10 16.0934 0 0
3:35 am 03:35 Clear 65 18.5 54 12 66 66 S 10 17 29.8 1009 10 16.0934 0 0
3:55 am 03:55 Clear 65 18.5 54 12.3 67 67 S 10 17 29.8 1009 10 16.0934 0 0
4:15 am 04:15 Clear 65 18.5 55 12.6 69 69 S 13 20 29.8 1009 10 16.0934 0 0
4:35 am 04:35 Clear 65 18.3 55 13 71 71 S 10 17 29.8 1009 10 16.0934 0 0
4:55 am 04:55 Clear 64 18 56 13.1 73 73 S 9 15 29.83 1010 10 16.0934 0 0
5:15 am 05:15 Clear 64 18 56 13.4 75 75 S 10 17 29.83 1010 10 16.0934 0 0
5:35 am 05:35 Clear 64 17.7 56 13.6 77 77 S 8 13 29.83 1010 10 16.0934 0 0
5:55 am 05:55 Clear 64 17.6 57 13.7 78 78 S 8 13 29.83 1010 10 16.0934 0 0
6:15 am 06:15 Sunny 64 17.5 57 13.7 79 79 S 12 19 29.8 1009 10 16.0934 0 0
6:35 am 06:35 Sunny 63 17.3 57 13.8 80 80 S 12 19 29.8 1009 10 16.0934 0 0
6:55 am 06:55 Sunny 64 17.7 57 14.1 80 80 S 9 15 29.83 1010 10 16.0934 0 0
7:15 am 07:15 Sunny 64 18 58 14.2 79 79 S 10 17 29.83 1010 10 16.0934 0 0
7:35 am 07:35 Sunny 65 18.5 58 14.5 78 78 S 9 15 29.8 1009 10 16.0934 0 0
7:55 am 07:55 Sunny 66 19.1 58 14.6 75 75 S 10 17 29.8 1009 10 16.0934 0 0
8:15 am 08:15 Sunny 68 19.9 58 14.6 72 72 S 9 15 29.8 1009 10 16.0934 0 0
8:35 am 08:35 Sunny 69 20.7 58 14.6 68 68 S 10 17 29.8 1009 10 16.0934 0 0
8:55 am 08:55 Sunny 71 21.8 58 14.5 63 63 S 15 24 29.8 1009 10 16.0934 0 0
9:15 am 09:15 Sunny 73 22.6 58 14.2 59 59 S 13 20 29.74 1007 10 16.0934 0 0
9:35 am 09:35 Sunny 73 23 57 14.1 57 57 S 12 19 29.74 1007 10 16.0934 0 0
9:55 am 09:55 Sunny 74 23.3 58 14.2 57 57 S 10 17 29.74 1007 10 16.0934 0 0
10:15 am 10:15 Sunny 74 23.3 57 14 56 56 S 10 17 29.74 1007 10 16.0934 0 0
10:35 am 10:35 Sunny 76 24.4 57 14.1 53 53 S 10 17 29.74 1007 10 16.0934 0 0
10:55 am 10:55 Sunny 76 24.6 58 14.6 54 54 S 10 17 29.74 1007 10 16.0934 0 0
11:15 am 11:15 Sunny 77 25.1 58 14.4 52 52 S 8 13 29.74 1007 10 16.0934 0 0
11:35 am 11:35 Sunny 78 25.7 58 14.4 50 50 SSE 12 19 29.68 1005 10 16.0934 0 0
11:55 am 11:55 Sunny 80 26.5 59 15.2 50 50 SSE 10 17 29.68 1005 10 16.0934 0 0
12:15 pm 12:15 Sunny 80 26.9 60 15.6 50 50 SSE 12 19 29.68 1005 10 16.0934 0 0
12:35 pm 12:35 Sunny 82 27.8 58 14.6 44 44 S 10 17 29.68 1005 10 16.0934 0 0
12:55 pm 12:55 Sunny 84 28.7 60 15.8 46 46 SSE 14 22 29.65 1004 10 16.0934 0 0
1:15 pm 13:15 Sunny 85 29.2 57 14 39 39 S 14 22 29.65 1004 10 16.0934 0 0
1:35 pm 13:35 Sunny 85 29.3 58 14.6 41 41 SSE 14 22 29.65 1004 10 16.0934 0 0
1:55 pm 13:55 Sunny 86 29.8 58 14.7 40 40 SSE 17 28 29.65 1004 10 16.0934 0 0
2:15 pm 14:15 Sunny 85 29.7 58 14.5 40 40 S 15 24 29.65 1004 10 16.0934 0 0
2:35 pm 14:35 Sunny 85 29.6 59 15 41 41 SSE 18 30 29.65 1004 10 16.0934 0 0
2:55 pm 14:55 Sunny 86 30.1 57 14.1 38 38 S 16 26 29.65 1004 10 16.0934 0 0
3:15 pm 15:15 Sunny 86 30 58 14.2 38 38 SSE 17 28 29.62 1003 10 16.0934 0 0
3:35 pm 15:35 Sunny 86 30.2 56 13.2 35 35 S 18 30 29.62 1003 10 16.0934 0 0
3:55 pm 15:55 Sunny 86 30.2 56 13.4 36 36 S 15 24 29.62 1003 10 16.0934 0 0
4:15 pm 16:15 Sunny 87 30.5 57 14 37 37 S 15 24 29.62 1003 10 16.0934 0 0
4:35 pm 16:35 Sunny 88 31 57 13.9 35 35 S 15 24 29.62 1003 10 16.0934 0 0
4:55 pm 16:55 Sunny 87 30.5 57 14.1 37 37 S 12 19 29.62 1003 10 16.0934 0 0
5:15 pm 17:15 Sunny 88 31.1 56 13.5 34 34 SSE 15 24 29.62 1003 10 16.0934 0 0
5:35 pm 17:35 Sunny 89 31.5 56 13.1 32 32 S 12 19 29.62 1003 10 16.0934 0 0
5:55 pm 17:55 Sunny 89 31.5 55 13 32 32 SSW 12 19 29.62 1003 10 16.0934 0 0
6:15 pm 18:15 Sunny 89 31.6 56 13.5 33 33 S 12 19 29.62 1003 10 16.0934 0 0
6:35 pm 18:35 Sunny 89 31.7 57 13.8 34 34 S 9 15 29.62 1003 10 16.0934 0 0
6:55 pm 18:55 Sunny 89 31.5 55 12.8 32 32 S 13 20 29.62 1003 10 16.0934 0 0
7:15 pm 19:15 Sunny 89 31.5 56 13.1 32 32 S 12 19 29.62 1003 10 16.0934 0 0
7:35 pm 19:35 Sunny 88 31.2 55 13 33 33 S 9 15 29.62 1003 10 16.0934 0 0
7:55 pm 19:55 Sunny 87 30.8 56 13.1 34 34 S 7 11 29.62 1003 10 16.0934 0 0
8:15 pm 20:15 Sunny 85 29.6 57 14.1 39 39 SSE 7 11 29.62 1003 10 16.0934 0 0
8:35 pm 20:35 Sunny 84 28.7 58 14.2 41 41 SSE 7 11 29.62 1003 10 16.0934 0 0
8:55 pm 20:55 Sunny 81 27.3 58 14.7 46 46 SSE 6 9 29.65 1004 10 16.0934 0 0
9:15 pm 21:15 Clear 78 25.8 59 15 51 51 SE 8 13 29.65 1004 10 16.0934 0 0
9:35 pm 21:35 Clear 78 25.7 59 14.8 51 51 SSE 8 13 29.65 1004 10 16.0934 0 0
9:55 pm 21:55 Clear 81 27 57 13.7 44 44 S 14 22 29.65 1004 10 16.0934 0 0
10:15 pm 22:15 Clear 80 26.4 56 13.5 45 45 S 13 20 29.65 1004 10 16.0934 0 0
10:35 pm 22:35 Clear 79 25.9 55 13 45 45 S 12 19 29.65 1004 10 16.0934 0 0
10:55 pm 22:55 Clear 78 25.6 55 12.5 44 44 S 10 17 29.65 1004 10 16.0934 0 0
11:15 pm 23:15 Clear 78 25.5 54 12.1 43 43 S 15 24 29.65 1004 10 16.0934 0 0
11:35 pm 23:35 Clear 78 25.5 53 11.7 42 42 S 15 24 29.65 1004 10 16.0934 0 0
11:55 pm 23:55 Clear 77 25.1 53 11.7 43 43 S 15 24 29.65 1004 10 16.0934 0 0

Powered by AerisWeather